User: anonymous   Login
Location: Caltech
(34.1382°N, 118.1253°W)
Time: 22:33:11
(UTC-07:00)
Language:

COSMOS 2428 - Orbit

View from above orbital plane
View from above orbital plane
View from above satellite
View from above satellite

Ground track
Ground track

The orbit data is extracted from the following two-line orbital elements,

1 31792U 07029A   14297.78283985  .00000387  00000-0  23511-3 0  1178
2 31792 070.9722 278.0206 0011687 285.8979 153.1614 14.12452479377611
Epoch (UTC): 24 October 2014 18:47:17
Eccentricity: 0.0011687
inclination: 70.9722°
perigee height: 842 km
apogee height: 859 km
right ascension of ascending node: 278.0206°
argument of perigee: 285.8979°
revolutions per day: 14.12452479
mean anomaly at epoch: 153.1614°
orbit number at epoch: 37761

The dashed part of the orbit path shows where the satellite is in the earth's shadow,  

DLR